[ hide orbit diagram ]
For accurate long-term ephemerides, please instead use our Horizons system.This orbit viewer was implemented using two-body methods, and hence should not be used for determining accurate long-term trajectories (over several years or decades) or planetary encounter circumstances.
Orbital Elements at Epoch 2459000.5 (2020-May-31.0) TDB
Reference: JPL 10 (heliocentric ecliptic J2000)
Element | Value | Uncertainty (1-sigma) | Units |
e | .1186035198006287 | 6.8576e-08 | |
a | 2.986197507871967 | 4.4484e-08 | au |
q | 2.632023972618486 | 1.9291e-07 | au |
i | 7.127861116890263 | 9.4474e-06 | deg |
node | 169.1310376679613 | 6.0401e-05 | deg |
peri | 295.0277115625723 | 7.8904e-05 | deg |
M | 165.9839982975357 | 5.5026e-05 | deg |
tp | 2458131.459650889281 (2018-Jan-12.95965089) | 0.00027618 | TDB |
period | 1884.847508728218 5.16 | 4.2117e-05 1.153e-07 | d yr |
n | .190996883478869 | 4.2678e-09 | deg/d |
Q | 3.340371043125448 | 4.9761e-08 | au |
|
| | Orbit Determination Parameters
Additional Information
|
[ show covariance matrix ]
Physical Parameter Table
Parameter |
Symbol |
Value |
Units |
Sigma |
Reference |
Notes |
absolute magnitude |
H |
16.3 |
|
n/a |
MPO476331 |
|
|
300908 (2008 BV43) Discovered 2008-Jan-30 by CSS at Catalina |
Reference: 20111012/Numbers.arc | Last Updated: 2011-10-13 |
|
[ hide close-approach data ]
Close-Approach Data ...sorted by Date/Time (TDB)
|
Date/Time (TDB) |
Time Uncertainty (days_HH:MM) |
Body |
Nominal Distance (au) |
Minimum Distance (au) |
Maximum Distance (au) |
V-relative (km/s) |
V-infinity (km/s) |
JD (TDB) |
Time Uncertainty (minutes) |
Semi-major axis (km) |
Semi-minor axis (km) |
range-LOV angle (deg) |
N-sigma |
BP |
Orbit Ref. |
Reference |
Modified |
1902-Nov-28 15:11 |
00:07 |
Jupiter |
1.82098915770508 |
1.82098797223799 |
1.82099034319494 |
2.73167397604347 |
2.55572970859988 |
2416082.132747767 |
7.42065246402956 |
470.085393587518 |
23.4042941944749 |
-87.481016182033 |
1124544.61211681 |
T |
10 |
CATAB v2.0f-lin.ifort 2020-Feb-25 17:22:16 |
2020-Feb-25 17:22 |
1939-May-05 15:19 |
00:05 |
Jupiter |
1.89181741615429 |
1.89181522356459 |
1.89181960876271 |
3.43260287882468 |
3.29959140968608 |
2429389.138389120 |
4.86629042497684 |
351.69816595314 |
32.0227909083184 |
77.6980536338425 |
1219481.75482243 |
T |
10 |
CATAB v2.0f-lin.ifort 2020-Feb-25 17:22:16 |
2020-Feb-25 17:22 |
1984-Jul-27 22:51 |
00:02 |
Jupiter |
1.94195857250695 |
1.94195761737728 |
1.94195952763673 |
2.31220701990711 |
2.11517443822911 |
2445909.451981536 |
2.24807682201455 |
98.1507362863008 |
25.6528202100356 |
-72.6133076073419 |
1760105.14766774 |
T |
10 |
CATAB v2.0f-lin.ifort 2020-Feb-25 17:22:16 |
2020-Feb-25 17:22 |
2021-Jan-16 03:58 |
< 00:01 |
Jupiter |
1.82635940909698 |
1.8263584706106 |
1.82636034758315 |
2.43093399121759 |
2.2320141428585 |
2459230.665123835 |
0.618164741570303 |
116.017568814445 |
26.7758599007573 |
-85.8329719919632 |
1427366.369056 |
T |
10 |
CATAB v2.0f-lin.ifort 2020-Feb-25 17:22:16 |
2020-Feb-25 17:22 |
2057-Jun-26 15:49 |
00:03 |
Jupiter |
1.82639742634582 |
1.82639657039765 |
1.82639828229408 |
2.98874577584184 |
2.82932283140145 |
2472541.159227354 |
2.84123844196527 |
204.429278252848 |
31.3314956399452 |
-86.8572529913971 |
1340979.76710084 |
T |
10 |
CATAB v2.0f-lin.ifort 2020-Feb-25 17:22:16 |
2020-Feb-25 17:22 |
2093-Dec-01 20:36 |
00:05 |
Jupiter |
1.9376622579365 |
1.93766053312654 |
1.93766398276342 |
3.67365274082714 |
3.55266827247879 |
2485848.358485733 |
5.18958018050934 |
356.873395866251 |
37.0614122471929 |
80.0607373322206 |
1364340.5963692 |
T |
10 |
CATAB v2.0f-lin.ifort 2020-Feb-25 17:22:16 |
2020-Feb-25 17:22 |
2139-Mar-04 18:42 |
00:08 |
Jupiter |
1.88161837675353 |
1.88161547139889 |
1.88162128211095 |
2.32013622730055 |
2.11724333852309 |
2502376.279163979 |
8.3928914785626 |
201.331987608562 |
62.700163795532 |
-51.5386486987739 |
1639408.16920868 |
T |
10 |
CATAB v2.0f-lin.ifort 2020-Feb-25 17:22:16 |
2020-Feb-25 17:22 |
2175-Aug-19 05:59 |
00:11 |
Jupiter |
1.80615317886861 |
1.80615185142099 |
1.80615450637146 |
2.65644590958851 |
2.47361577292517 |
2515692.749291600 |
10.5675106767816 |
605.259765682397 |
29.8806154498176 |
-80.0959552485202 |
1319009.48562925 |
T |
10 |
CATAB v2.0f-lin.ifort 2020-Feb-25 17:22:16 |
2020-Feb-25 17:22 |
|
|